Shenzhen Bao'an International Airport
ZGSZ : now visible

Aeroporto :











RITROVATECI SU...

 
LOGIN :

Iscrizione | Disclaimer

   EN    FR    IT 

 









Sommario :    VFR   VFR Marginale   IFR   IFR Intensivo   IFR Molto Intensivo
Visibilità : 
Base nubi : 
>= 8 km
>= 3000ft
5 / 8 km
1000 / 3000 ft
1500m / 5 km
500 / 1000 ft
800 / 1500m
200 / 500 ft
< 800m
< 200 ft
Simboli :   Temporali  Nebbia  Neve Forte  Precipitazioni Forti  Vento > 20 kt







- Altitudine del aeroporto : 13 ft
- Codice IATA : SZX


ZGSZ - Shenzhen Bao'an International

ULTIMO METAR :
  • 182300Z 25002MPS 210V270 CAVOK 30/26 Q1000 NOSIG

METARs OBSOLETI :
  • 182200Z VRB01MPS CAVOK 29/26 Q0999 NOSIG
  • 182100Z 00000MPS CAVOK 29/26 Q0999 NOSIG

TAF TAF ZGSZ
Valido dal 18 a 18 ore il 19 a 18 ore UTC


181522Z 1818/1918 21004MPS 6000 FEW040 TX36/1907Z TN29/1822Z
TEMPO 1906/1912 TSRA SCT011 FEW020CB BKN030
FIR ZGZU / Asia



MetMap, La meteo Aeronautica in un colpo d'occhio ! - Copyright ORBIFLY Dicembre 2007 - Disclaimer

ORBIFLY MET'MAP TEAM :

Programmazione e sviluppo : Alexandra Zaïnal
Concezione e sviluppo : Baudouin d'Aumeries
Co-Programmazione e sviluppo : Marc-Olivier Méhu
Supporto tecnico e logistico : Manuel Goepfert
Aiuto per la traduzione : Arnaldo La Scala

Contatto : metmap@orbifly.com




FONTI E CREDITI :

   NOAA       Earth
Advisory